KA8OAD-1 Weather Reports


Display with metric or nautical units.
time (UTC)temp
F
wind
direction
speed
MPH
gust
MPH
rain 1hr
in
rain 24hr
in
rain mn
in
humidity
%
barometer
mb
20260507084004 40 0 0.0 0.0 0.00 0.06 0.00 87 1011.2
20260507083505 40 0 0.0 0.0 0.00 0.06 0.00 87 1011.1
20260507083004 40 0 0.0 0.0 0.00 0.06 0.00 86 1011.1
20260507082504 40 0 0.0 0.0 0.00 0.06 0.00 86 1011.2
20260507081504 40 0 0.0 0.0 0.00 0.07 0.00 86 1011.2
20260507081005 40 0 0.0 0.0 0.00 0.08 0.00 86 1011.2
20260507080503 40 0 0.0 0.0 0.00 0.09 0.00 86 1011.2
20260507080005 40 0 0.0 0.0 0.00 0.10 0.00 86 1011.3
20260507075503 40 0 0.0 0.0 0.00 0.11 0.00 86 1011.3
20260507075005 40 0 0.0 0.0 0.00 0.12 0.00 86 1011.3
20260507074503 41 0 0.0 0.0 0.00 0.13 0.00 85 1011.2
20260507073503 41 0 0.0 0.0 0.00 0.14 0.00 85 1011.3
20260507072005 41 0 0.0 0.0 0.00 0.17 0.00 85 1011.3
20260507071504 41 0 0.0 0.0 0.00 0.18 0.00 85 1011.3
20260507071005 41 0 0.0 0.0 0.00 0.19 0.00 85 1011.3
20260507070503 41 0 0.0 0.0 0.00 0.20 0.00 84 1011.3
20260507070009 42 0 0.0 0.0 0.00 0.21 0.00 84 1011.4
20260507065503 42 0 0.0 0.0 0.00 0.23 0.00 84 1011.4
20260507065004 42 0 0.0 0.0 0.00 0.23 0.00 84 1011.4
20260507064504 42 0 0.0 0.0 0.00 0.23 0.00 84 1011.5
20260507064004 42 0 0.0 0.0 0.00 0.24 0.00 84 1011.5
20260507063004 42 0 0.0 0.0 0.00 0.24 0.00 84 1011.6
20260507062504 42 0 0.0 0.0 0.00 0.25 0.00 84 1011.6
20260507062005 43 0 0.0 0.0 0.00 0.26 0.00 84 1011.7
20260507061503 43 0 0.0 0.0 0.00 0.26 0.00 84 1011.8
20260507061005 43 0 0.0 0.0 0.00 0.27 0.00 83 1011.8
20260507060503 43 0 0.0 0.0 0.00 0.28 0.00 83 1011.9
20260507060005 43 0 0.0 0.0 0.00 0.29 0.00 83 1011.9
20260507055503 43 0 0.0 0.0 0.00 0.29 0.00 83 1012.0
20260507055005 44 0 0.0 0.0 0.00 0.30 0.00 83 1012.0
20260507054504 44 0 0.0 0.0 0.00 0.30 0.00 83 1012.0
20260507054004 44 0 0.0 0.0 0.00 0.31 0.00 82 1012.0
20260507053504 44 0 0.0 0.0 0.00 0.31 0.00 82 1012.0
20260507053005 44 0 0.0 0.0 0.00 0.32 0.00 82 1012.0
20260507052504 44 0 0.0 0.0 0.00 0.32 0.00 82 1012.1
20260507052004 44 0 0.0 0.0 0.00 0.33 0.00 82 1012.0
20260507051504 44 0 0.0 0.0 0.00 0.34 0.00 82 1012.1
20260507051004 44 0 0.0 0.0 0.00 0.34 0.00 82 1012.1
20260507050504 45 0 0.0 0.0 0.00 0.34 0.00 81 1012.1
20260507050005 45 0 0.0 0.0 0.00 0.35 0.00 82 1012.1
20260507045004 45 0 0.0 0.0 0.00 0.36 0.00 82 1012.1
20260507044503 45 0 0.0 0.0 0.00 0.36 0.00 82 1012.1
20260507044005 45 0 0.0 0.0 0.00 0.36 0.00 82 1012.1
20260507041503 45 0 0.0 0.0 0.00 0.38 0.00 80 1012.2
20260507041004 45 0 0.0 0.0 0.00 0.39 0.00 79 1012.3
20260507040503 45 0 0.0 0.0 0.00 0.39 0.00 79 1012.4
20260507035503 46 0 0.0 0.0 0.00 0.40 0.40 77 1012.5
20260507035005 46 0 0.0 0.0 0.00 0.41 0.40 77 1012.5
20260507034004 46 0 0.0 0.0 0.00 0.42 0.40 75 1012.6
20260507033504 46 0 0.0 0.0 0.00 0.42 0.40 74 1012.7
20260507033005 47 0 0.0 0.0 0.00 0.43 0.40 73 1012.7
20260507032504 47 0 0.0 0.0 0.00 0.44 0.40 72 1012.8
20260507032004 47 0 0.0 0.0 0.00 0.44 0.40 72 1012.8
20260507031504 47 0 0.0 0.0 0.00 0.44 0.40 71 1012.8
20260507031004 48 0 0.0 0.0 0.00 0.45 0.40 71 1012.7
20260507030504 48 0 0.0 0.0 0.00 0.45 0.40 71 1012.6
20260507025504 48 0 0.0 0.0 0.00 0.46 0.40 70 1012.6
20260507025004 48 0 0.0 0.0 0.00 0.47 0.40 70 1012.6
20260507024503 48 0 0.0 0.0 0.00 0.47 0.40 70 1012.5
20260507024004 48 0 0.0 0.0 0.00 0.48 0.40 69 1012.3
20260507023504 48 0 0.0 0.0 0.00 0.49 0.40 69 1012.3
20260507023004 48 0 0.0 0.0 0.00 0.50 0.40 69 1012.2
20260507022004 48 0 0.0 0.0 0.00 0.54 0.40 69 1012.3
20260507021504 48 0 0.0 0.0 0.00 0.57 0.40 68 1012.3
20260507021004 49 0 0.0 0.0 0.00 0.60 0.40 68 1012.3
20260507020504 49 0 0.0 0.0 0.00 0.62 0.40 68 1012.2
20260507015504 49 0 0.0 0.0 0.00 0.64 0.40 67 1012.2
20260507015005 49 0 0.0 0.0 0.00 0.66 0.40 67 1012.2
20260507014503 49 0 0.0 0.0 0.00 0.68 0.40 67 1012.2
20260507014004 49 0 0.0 0.0 0.00 0.69 0.40 67 1012.0
20260507013504 49 0 0.0 0.0 0.00 0.71 0.40 66 1012.0
20260507013004 49 0 0.0 0.0 0.00 0.73 0.40 66 1011.9
20260507012004 49 0 0.0 0.0 0.00 0.76 0.40 65 1011.8
20260507011503 49 0 0.0 0.0 0.00 0.77 0.40 64 1011.8
20260507011005 50 332 0.0 1.0 0.00 0.79 0.40 64 1011.8
20260507010503 50 332 0.0 2.0 0.00 0.82 0.40 65 1011.7
20260507005504 50 332 0.0 2.0 0.00 0.84 0.40 63 1011.7
20260507005004 50 0 0.0 0.0 0.00 0.85 0.40 63 1011.7
20260507004504 50 0 0.0 0.0 0.00 0.85 0.40 63 1011.7
20260507004004 50 0 0.0 0.0 0.00 0.85 0.40 62 1011.8
20260507003005 50 329 0.0 1.0 0.00 0.86 0.40 62 1011.8
20260507002503 50 328 0.0 2.0 0.00 0.86 0.40 62 1011.7
20260507002004 50 328 1.0 3.0 0.00 0.86 0.40 62 1011.6
20260507001504 50 328 1.0 3.0 0.00 0.86 0.40 61 1011.6
20260507001004 50 328 1.0 3.0 0.00 0.86 0.40 60 1011.5
20260507000504 51 312 1.0 4.0 0.00 0.86 0.40 60 1011.4
20260507000004 51 300 1.0 4.0 0.00 0.86 0.40 59 1011.5
20260506234004 51 307 2.0 5.0 0.00 0.89 0.40 59 1011.7
20260506233503 51 329 2.0 5.0 0.00 0.91 0.40 59 1011.7
20260506233005 52 324 2.0 4.0 0.00 0.92 0.40 60 1011.6
20260506232503 52 314 2.0 4.0 0.00 0.93 0.40 59 1011.6
20260506232005 52 303 2.0 4.0 0.00 0.94 0.40 59 1011.5
20260506231503 52 302 2.0 5.0 0.00 0.96 0.40 58 1011.3
20260506231005 52 307 2.0 5.0 0.00 0.99 0.40 58 1011.3
20260506230505 52 300 2.0 4.0 0.00 1.06 0.40 58 1011.3
20260506230055 53 312 2.0 5.0 0.00 1.11 0.40 58 1011.3
20260506225504 53 324 2.0 9.0 0.00 1.16 0.40 58 1011.3
20260506225004 53 330 3.0 10.0 0.00 1.17 0.40 57 1011.2
20260506224504 53 328 3.0 10.0 0.00 1.17 0.40 56 1011.3
20260506224004 53 315 3.0 8.0 0.00 1.18 0.40 56 1011.2
20260506223504 54 307 2.0 7.0 0.00 1.18 0.40 57 1011.0
20260506223004 54 315 2.0 8.0 0.00 1.18 0.40 57 1011.0
20260506222504 54 328 2.0 8.0 0.00 1.18 0.40 56 1010.9
20260506222005 54 331 3.0 7.0 0.00 1.18 0.40 56 1010.9
20260506221504 54 334 2.0 7.0 0.00 1.18 0.40 56 1010.7
20260506221005 54 343 2.0 4.0 0.00 1.18 0.40 54 1010.7
20260506220005 54 316 1.0 5.0 0.00 1.18 0.40 54 1010.7
20260506215006 54 316 3.0 5.0 0.00 1.18 0.40 53 1010.7
20260506214503 55 314 2.0 4.0 0.00 1.18 0.40 53 1010.5
20260506214005 55 311 2.0 4.0 0.00 1.18 0.40 52 1010.4
20260506213005 55 306 3.0 8.0 0.00 1.18 0.40 49 1010.2
20260506212503 55 306 3.0 8.0 0.00 1.18 0.40 50 1010.2
20260506212005 55 314 3.0 6.0 0.00 1.18 0.40 51 1010.2
20260506211503 56 316 3.0 6.0 0.00 1.18 0.40 51 1010.3
20260506211004 56 320 3.0 7.0 0.00 1.19 0.40 50 1010.3
20260506210504 56 324 3.0 7.0 0.00 1.20 0.40 51 1010.2
20260506210004 56 312 2.0 5.0 0.00 1.20 0.40 47 1010.2
20260506205503 56 297 2.0 7.0 0.00 1.20 0.40 48 1010.2
20260506205005 56 301 2.0 7.0 0.00 1.20 0.40 50 1010.3
20260506204503 56 306 4.0 11.0 0.00 1.20 0.40 49 1010.3
20260506204005 56 321 3.0 11.0 0.00 1.20 0.40 49 1010.4
20260506203503 56 318 3.0 6.0 0.00 1.21 0.40 48 1010.3
20260506202504 56 310 3.0 11.0 0.00 1.24 0.40 47 1010.2
20260506202004 56 306 3.0 7.0 0.00 1.24 0.40 49 1010.2
20260506201504 56 296 3.0 8.0 0.00 1.24 0.40 49 1010.2
20260506201004 57 288 2.0 8.0 0.00 1.24 0.40 49 1010.3
20260506200504 57 297 3.0 9.0 0.00 1.24 0.40 51 1010.2
20260506200004 57 300 4.0 9.0 0.00 1.24 0.40 49 1010.4
20260506195504 58 305 3.0 9.0 0.00 1.24 0.40 48 1010.5
20260506195004 58 327 3.0 5.0 0.00 1.24 0.40 49 1010.2
20260506194504 58 330 3.0 7.0 0.00 1.24 0.40 48 1010.1
20260506193504 59 308 4.0 12.0 0.00 1.24 0.40 47 1010.1
20260506192504 60 309 4.0 14.0 0.00 1.24 0.40 45 1010.1
20260506192004 61 305 3.0 10.0 0.00 1.24 0.40 46 1010.3
20260506191504 61 319 4.0 10.0 0.00 1.24 0.40 50 1010.4
20260506191004 61 316 4.0 10.0 0.00 1.24 0.40 47 1010.1
20260506190005 61 330 3.0 12.0 0.00 1.24 0.40 48 1010.3
20260506185504 61 327 3.0 12.0 0.00 1.24 0.40 47 1010.3
20260506185004 61 310 4.0 12.0 0.00 1.24 0.40 49 1010.4
20260506184504 62 316 4.0 12.0 0.00 1.24 0.40 48 1010.4
20260506183503 62 324 3.0 9.0 0.00 1.24 0.40 53 1010.3
20260506183005 62 319 4.0 9.0 0.00 1.24 0.40 50 1010.3
20260506182004 62 309 4.0 10.0 0.00 1.24 0.40 53 1010.4
20260506181504 62 310 4.0 10.0 0.00 1.24 0.40 53 1010.4
20260506181004 61 309 5.0 11.0 0.00 1.24 0.40 49 1010.1
20260506180005 61 310 4.0 13.0 0.00 1.24 0.40 51 1010.2
20260506175503 62 308 5.0 13.0 0.00 1.24 0.40 48 1010.1
20260506175005 62 335 3.0 10.0 0.00 1.24 0.40 49 1010.2
20260506174503 62 349 3.0 9.0 0.00 1.24 0.40 49 1010.2
20260506173004 61 348 3.0 9.0 0.00 1.24 0.40 53 1009.9
20260506172004 59 349 3.0 10.0 0.00 1.24 0.40 55 1009.9
20260506171504 59 329 3.0 10.0 0.00 1.24 0.40 56 1009.8
20260506171005 58 303 3.0 7.0 0.00 1.24 0.40 55 1010.0
20260506170505 58 318 3.0 8.0 0.00 1.24 0.40 58 1010.0
20260506165503 58 304 4.0 10.0 0.00 1.24 0.40 64 1010.0
20260506165005 56 305 4.0 11.0 0.00 1.24 0.40 66 1010.0
20260506164004 55 323 2.0 5.0 0.00 1.24 0.40 68 1009.8
20260506163504 55 318 2.0 8.0 0.00 1.24 0.40 67 1010.0
20260506163004 55 306 3.0 8.0 0.00 1.24 0.40 66 1009.9
20260506162504 56 306 4.0 9.0 0.00 1.24 0.40 67 1009.7
20260506161503 56 292 3.0 9.0 0.00 1.24 0.40 67 1009.4
20260506160503 56 316 2.0 6.0 0.00 1.24 0.40 72 1009.5
20260506160004 56 327 3.0 10.0 0.00 1.24 0.40 74 1009.6
20260506155504 55 313 3.0 10.0 0.00 1.24 0.40 76 1009.6
20260506155004 55 296 3.0 15.0 0.00 1.24 0.40 78 1009.7
20260506154503 54 298 2.0 15.0 0.00 1.24 0.40 80 1009.6
20260506154005 53 317 2.0 8.0 0.00 1.24 0.40 83 1009.5
20260506153503 52 311 3.0 8.0 0.00 1.24 0.40 82 1009.3
20260506153004 52 303 4.0 9.0 0.00 1.24 0.40 84 1009.3
20260506152503 52 308 4.0 9.0 0.00 1.24 0.40 86 1009.2
20260506152004 51 312 3.0 6.0 0.00 1.24 0.40 87 1009.0
20260506151004 50 304 4.0 10.0 0.00 1.24 0.40 89 1008.9
20260506150504 50 305 3.0 8.0 0.00 1.24 0.40 91 1008.9
20260506150005 49 300 3.0 8.0 0.00 1.24 0.40 92 1009.0
20260506145503 49 302 3.0 8.0 0.00 1.24 0.40 92 1008.8
20260506145005 49 314 3.0 8.0 0.00 1.24 0.40 92 1008.8
20260506144503 49 326 2.0 8.0 0.00 1.24 0.40 93 1008.8
20260506144004 48 317 2.0 6.0 0.00 1.24 0.40 93 1008.8
20260506143504 48 298 2.0 7.0 0.00 1.24 0.40 93 1008.7
20260506143005 48 307 2.0 7.0 0.00 1.24 0.40 93 1008.6
20260506142503 48 312 2.0 5.0 0.00 1.24 0.40 93 1008.5
20260506142004 48 310 3.0 8.0 0.00 1.24 0.40 93 1008.6
20260506141504 48 310 4.0 8.0 0.00 1.24 0.40 93 1008.7
20260506141005 48 307 3.0 8.0 0.00 1.24 0.40 93 1008.7
20260506140503 48 309 2.0 5.0 0.00 1.24 0.40 93 1008.7
20260506140004 48 304 2.0 7.0 0.00 1.24 0.40 93 1008.6
20260506135005 47 308 2.0 6.0 0.00 1.24 0.40 93 1008.7
20260506134504 47 308 3.0 11.0 0.00 1.24 0.40 93 1008.7
20260506134005 47 302 1.0 11.0 0.00 1.24 0.40 93 1008.6
20260506133504 47 304 0.0 2.0 0.00 1.24 0.40 93 1008.4
20260506133004 47 329 0.0 1.0 0.00 1.24 0.40 93 1008.4
20260506132504 47 316 0.0 2.0 0.00 1.24 0.40 93 1008.4
20260506132005 47 306 0.0 2.0 0.00 1.24 0.40 93 1008.3
20260506131504 47 306 0.0 2.0 0.00 1.24 0.40 93 1008.1
20260506131004 47 308 0.0 2.0 0.00 1.24 0.40 93 1008.2
20260506125503 47 311 1.0 4.0 0.00 1.24 0.40 93 1007.8
20260506124504 47 314 2.0 5.0 0.00 1.24 0.40 93 1007.7
20260506124005 46 311 2.0 5.0 0.00 1.24 0.40 93 1007.6
20260506123004 46 289 2.0 4.0 0.00 1.24 0.40 93 1007.4
20260506122504 46 288 1.0 4.0 0.00 1.24 0.40 93 1007.5
20260506122004 46 288 1.0 2.0 0.00 1.24 0.40 93 1007.4
20260506121505 46 288 1.0 3.0 0.00 1.25 0.40 93 1007.4
20260506121004 46 288 2.0 3.0 0.00 1.25 0.40 93 1007.5
20260506120504 46 287 2.0 3.0 0.00 1.25 0.40 93 1007.5
20260506115504 46 292 1.0 5.0 0.00 1.25 0.40 93 1007.4
20260506115004 46 301 2.0 5.0 0.00 1.25 0.40 93 1007.4
20260506114504 46 298 2.0 5.0 0.00 1.25 0.40 93 1007.7
20260506114004 46 293 2.0 5.0 0.00 1.25 0.40 93 1007.5
20260506113503 46 288 2.0 4.0 0.00 1.25 0.40 93 1007.2
20260506112005 46 288 1.0 3.0 0.00 1.25 0.40 93 1007.0
20260506111503 46 0 0.0 0.0 0.00 1.25 0.40 93 1007.0
20260506111005 46 0 0.0 0.0 0.00 1.25 0.40 93 1007.3
20260506110503 46 282 0.0 3.0 0.00 1.25 0.40 93 1007.0
20260506110005 46 299 1.0 7.0 0.00 1.25 0.40 93 1006.6
20260506105503 46 300 2.0 7.0 0.01 1.25 0.40 93 1006.7
20260506105005 46 310 2.0 7.0 0.01 1.25 0.40 93 1007.0
20260506104503 46 353 1.0 3.0 0.02 1.25 0.40 93 1006.7
20260506104005 46 35 1.0 3.0 0.02 1.25 0.40 93 1006.4
20260506103503 46 43 0.0 3.0 0.02 1.25 0.40 93 1005.8
20260506103005 46 47 1.0 2.0 0.02 1.25 0.40 93 1005.8
20260506102504 46 47 1.0 2.0 0.03 1.25 0.40 93 1006.0
20260506102004 46 46 0.0 2.0 0.03 1.25 0.40 93 1005.9
20260506101504 46 0 0.0 0.0 0.04 1.25 0.40 93 1005.6
20260506101004 46 0 0.0 0.0 0.04 1.25 0.40 93 1005.3
20260506100004 46 0 0.0 0.0 0.05 1.25 0.40 93 1005.7
20260506095504 46 0 0.0 0.0 0.04 1.24 0.39 92 1006.0
20260506094504 46 0 0.0 0.0 0.03 1.23 0.38 93 1006.3
20260506094004 45 0 0.0 0.0 0.04 1.23 0.38 93 1006.6
20260506093504 45 0 0.0 0.0 0.04 1.23 0.38 93 1006.6
20260506093004 45 0 0.0 0.0 0.04 1.23 0.38 93 1006.5
20260506092504 45 0 0.0 0.0 0.03 1.22 0.37 92 1006.5
20260506092004 45 0 0.0 0.0 0.03 1.22 0.37 92 1006.4
20260506091503 45 0 0.0 0.0 0.03 1.21 0.36 92 1006.4
20260506091005 45 0 0.0 0.0 0.04 1.21 0.36 92 1006.3
20260506090504 45 0 0.0 0.0 0.04 1.20 0.35 92 1006.5
20260506090004 45 46 0.0 1.0 0.05 1.20 0.35 92 1006.4
20260506085504 45 61 0.0 2.0 0.06 1.20 0.35 92 1006.2
20260506085004 45 67 1.0 2.0 0.07 1.20 0.35 92 1006.1
20260506084504 45 23 1.0 3.0 0.08 1.20 0.35 92 1006.0